千帆星座-139(QIANFAN-139)

导读

QIANFAN-139(NORAD编号69084)是中国千帆星座互联网卫星项目中的一颗卫星。千帆星座由我国民营企业主导建设,旨在构建低轨宽带通信卫星星座,提供全球泛在互联服务,支撑物联网、远程通信等应用需求。 该卫星运行于近地轨道,是千帆星座组网过程中发射的卫星之一,延续了千帆卫星系列设计方案,承担着网络验证与星座扩容任务,推动我国低轨卫星互联网基础设施建设。目前公开资料中暂未披露其详细任务参数与特殊设计。

基本信息
目录编号:
69084
目录名称:
QIANFAN-138
国际标识:
2026-104M
轨道中心:
EARTH
卫星名称:
千帆星座-139
卫星全名:
千帆星座-139(QIANFAN-139)
卫星状态:
在轨 (已飞行122 天)
发射日期:
2026-05-12 UTC
国别 :
中国 (CN)
星等 :
--
该卫星已列入 空间交会检测服务 Space Conjunction Data Service (SCDS) ,当前飞行风险评估等级: 无高风险
轨道信息
数据来源 国际轨道数据 AOE轨道数据
星历时间 2026-09-11T13:59:37+0800
7小时前
查看轨道信息
2026-09-07T00:00:00+0800
4天前
查看轨道信息
半长轴 7446.644km 7446.586km
偏心率 0.0002452 0.0002342
轨道倾角 88.991° 88.992°
近地点辐角 110.752° 114.091°
升交点赤经 332.709° 333.176°
平近点角 249.389° 288.718°
近地点 1066.681km 1066.705km
远地点 1070.333km 1070.193km
周期 106.586分钟 106.585分钟
每日圈数 13.510204 13.510363
详细信息
卫星平台:
139
覆盖范围:
全球
运营商:
上海垣信卫星科技有限公司
运营商所在国:
中国
使用方式:
暂无
卫星简介
千帆星座,也被称为“G60星链”计划,是中国版“星链”的重要组成部分,旨在打造一个由1.4万多颗低轨宽频多媒体卫星构成的庞大星座。千帆星座计划由上海垣信卫星科技有限公司负责实施,于2023年启动建设。该项目是我国第二个低轨卫星大星座,旨在通过构建庞大的卫星网络,为全球用户提供高质量的通信和宽带互联网服务。
2D轨道图
3D轨道图
轨道高度分析图
轨道倾角分析图
轨道综合分析图
查看轨道综合分析图
与全量物体交会距离演化趋势
与全量物体交会风险概率演化趋势